Location: Seminole
(32.7190°N, 102.6440°W)
Time: 11:34:20
(UTC-05:00)

Meteor 2-10 - Visible Passes

Search period start: 04 September 2015 00:00
Search period end: 14 September 2015 00:00
Orbit: 738 x 870 km, 81.2° (Epoch: 02 September)

Date Brightness Start Highest point End Pass type
(mag) Time Alt. Az. Time Alt. Az. Time Alt. Az.
04 Sep 5.9 04:46:10 22° NNW 04:46:10 22° NNW 04:48:01 10° N visible
05 Sep 6.2 04:20:47 19° N 04:20:47 19° N 04:22:12 10° N visible
06 Sep 6.6 03:55:22 15° NNE 03:55:22 15° NNE 03:56:12 10° NNE visible
07 Sep 7.0 03:29:56 11° NNE 03:29:56 11° NNE 03:30:03 10° NNE visible
